EST,Max TemperatureF,Mean TemperatureF,Min TemperatureF,Max Dew PointF,MeanDew PointF,Min DewpointF,Max Humidity, Mean Humidity, Min Humidity, Max Sea Level PressureIn, Mean Sea Level PressureIn, Min Sea Level PressureIn, Max VisibilityMiles, Mean VisibilityMiles, Min VisibilityMiles, Max Wind SpeedMPH, Mean Wind SpeedMPH, Max Gust SpeedMPH,PrecipitationIn, CloudCover, Events, WindDirDegrees
2014-2-1,82,77,71,71,70,69,93,81,69,30.15,30.11,30.06,10,10,10,17,8,24,0.00,3,,127
2014-2-2,81,76,71,72,69,67,93,80,67,30.17,30.10,30.07,10,10,10,22,9,29,0.01,4,,103
2014-2-3,83,79,74,72,71,70,87,78,69,30.12,30.08,30.04,10,10,10,17,9,24,0.00,4,,121
2014-2-4,82,78,73,72,70,68,87,76,65,30.14,30.09,30.06,10,10,10,18,11,24,0.00,6,,110
2014-2-5,84,80,75,73,71,69,87,76,65,30.12,30.07,30.02,10,10,10,16,9,26,T,5,Rain,149
2014-2-6,84,78,72,72,69,66,93,76,58,30.12,30.08,30.04,10,10,9,14,5,22,0.00,3,,137
2014-2-7,83,76,68,72,68,64,100,78,55,30.15,30.10,30.06,10,7,0,14,5,21,0.00,4,Fog,51
2014-2-8,84,77,69,71,68,66,97,80,62,30.10,30.06,30.00,10,10,8,14,5,21,T,4,,305
2014-2-9,80,74,68,70,66,61,97,78,58,30.09,30.04,30.01,10,8,2,13,5,18,0.00,5,,338
2014-2-10,82,74,66,67,64,61,87,69,51,30.10,30.05,30.01,10,10,10,13,5,30,0.00,5,,51
2014-2-11,84,77,69,69,66,63,90,71,51,30.08,30.04,30.01,10,10,10,15,5,22,0.00,2,,158
2014-2-12,82,74,66,70,67,62,93,78,62,30.04,29.93,29.85,10,9,0,36,7,44,0.75,6,Rain-Thunderstorm,151
2014-2-13,76,67,58,67,59,49,93,72,50,30.00,29.86,29.78,10,10,2,22,10,29,0.18,5,Rain,275
2014-2-14,71,61,51,52,44,32,89,58,26,30.09,30.03,29.98,10,10,10,13,5,21,0.00,0,,288
2014-2-15,79,68,56,60,55,47,86,66,45,30.14,30.06,29.99,10,10,10,18,6,25,0.00,2,,254
2014-2-16,77,65,52,56,48,39,83,57,31,30.21,30.15,30.11,10,10,10,13,3,20,0.00,0,,360
2014-2-17,78,69,59,59,57,54,84,66,48,30.23,30.19,30.14,10,10,10,16,6,23,0.00,1,,61
2014-2-18,80,71,62,62,59,57,84,66,48,30.24,30.19,30.16,10,10,10,16,7,25,0.00,2,,91
2014-2-19,80,74,67,66,63,60,81,68,54,30.18,30.14,30.10,10,10,10,16,9,22,0.00,3,,109
2014-2-20,83,77,70,72,67,63,87,75,62,30.18,30.12,30.09,10,10,10,20,12,24,T,4,,107
2014-2-21,84,79,74,72,70,69,87,76,65,30.12,30.08,30.04,10,10,9,20,10,29,0.00,5,,140
2014-2-22,85,79,72,72,70,66,93,76,58,30.13,30.07,30.02,10,10,10,15,5,21,0.00,4,,145
2014-2-23,84,77,70,72,70,69,100,83,65,30.10,30.05,30.01,10,10,10,15,6,23,0.00,4,,154
2014-2-24,86,78,70,70,67,63,90,69,48,30.06,30.02,29.98,10,10,10,12,5,23,T,4,,270
2014-2-25,86,78,70,70,66,63,93,71,48,30.05,30.00,29.93,10,10,10,13,5,22,T,4,Rain,276
2014-2-26,86,79,72,69,64,59,93,68,43,29.97,29.88,29.80,10,10,7,22,7,28,0.00,4,,239
2014-2-27,80,73,65,70,66,61,93,76,58,29.96,29.88,29.81,10,9,5,12,8,18,0.21,8,Rain,292
2014-2-28,76,70,63,64,60,50,93,72,50,30.09,30.00,29.90,10,9,5,12,5,19,0.01,6,Rain,311